SCP
-0 0 0 0 0 0 0 0 0 0 0 0 0 0 0 0 0 0 0 0 0 0 0 0 0 0 0 0 0 0 0 0 0 0 0 0 0 0 0 0 0 0 0 0 0 -0 0 0 0
-0 0 0 0 0 0 0 0 0 0 0 -0 0 0 0 0 0 0 0 0 0 0 0 0 0 0 0 0 0 0 0 0 0 0 0 0 0 0 0 0 0 0 0 0 0 0 0 0 0
-0 0 0 0 0 0 -0 0 0 0 0 0 0 0 0 0 0 0 0 -0 0 0 0 0 -0 -0 -0 0 0 0 0 0 0 -0 0 -0 0 -0 -0 -0 -0 0 -0 -0 -0 -0 -0 0 0
0 0 0 0 0 -0 -0 0 0 0 0 0 0 0 0 0 0 0 -0 0 0 -0 0 0 -0 -0 -0 0 0 0 0 0 0 0 -0 -0 -0 -0 -0 -0 -0 -0 -0 -0 -0 -0 -0 0 0
0 0 0 0 0 -0 -0 0 0 0 0 0 0 0 0 0 0 -0 -0 0 0 -0 0 0 0 0 -0 -0 0 0 0 0 0 0 -0 -0 -0 -0 -0 -0 -0 -0 0 0 0 0 0 0 0
0 0 0 0 0 0 -0 0 0 0 0 0 0 0 0 0 0 -0 -0 -0 0 0 0 0 0 0 0 -0 -0 -0 0 0 0 -0 -0 -0 -0 -0 -0 -0 -0 0 0 0 0 0 0 0 0
0 0 0 0 0 0 0 0 -0 0 0 0 0 0 0 0 0 0 0 0 0 0 0 0 0 0 0 -0 -0 -0 0 0 0 -0 -0 0 -0 -0 -0 0 0 0 0 0 0 0 0 0 0
0 0 0 0 0 0 0 0 0 0 -0 0 0 0 0 0 0 0 0 0 0 0 0 0 0 0 0 0 -0 -0 0 0 0 0 0 0 0 0 0 0 0 0 0 0 0 0 0 0 0
0 0 0 0 0 0 0 0 0 0 0 0 0 0 0 0 0 0 0 0 0 0 0 0 0 0 0 0 0 0 0 0 0 0 0 0 0 0 0 0 0 0 0 0 0 0 0 0 0
0 0 0 0 0 0 0 0 0 0 0 0 0 0 0 0 0 -0 -0 0 0 -0 0 0 0 -0 0 0 0 0 0 0 0 0 0 0 0 0 0 0 0 0 0 0 0 0 0 0 0
0 0 0 0 0 0 0 0 0 0 0 0 0 0 0 0 0 0 0 -0 -0 0 0 0 0 0 0 0 0 0 0 0 0 0 0 0 0 0 0 0 0 0 0 0 0 0 0 0 0
0 0 0 0 0 0 0 0 0 0 0 0 0 0 0 0 -0 0 0 0 0 0 0 0 0 0 0 0 0 0 0 0 0 0 0 0 0 0 0 0 0 0 0 0 0 0 0 0 0
0 0 0 0 0 0 0 0 0 0 0 0 0 0 0 0 0 -0 0 0 0 0 0 0 0 0 0 0 0 0 0 0 0 0 0 0 0 0 0 0 0 0 0 0 0 0 0 0 0
0 0 0 0 0 0 0 0 0 0 0 0 0 0 0 0 0 0 0 -0 0 0 0 0 0 0 0 0 0 0 0 0 0 0 0 0 0 0 0 0 0 0 0 0 0 0 0 0 0
0 0 0 0 0 0 0 0 0 0 0 0 0 0 0 0 0 0 0 0 0 0 0 0 0 0 0 0 0 0 0 0 0 0 0 0 0 0 0 0 0 0 0 0 0 0 0 0 0
0 0 0 0 0 0 0 0 0 0 0 0 0 0 0 0 0 0 0 0 0 0 0 0 0 0 0 0 0 0 0 0 0 0 0 0 0 0 0 0 0 0 0 0 0 0 0 0 0
0 0 0 0 0 0 0 0 0 0 0 0 0 0 0 0 0 0 0 0 0 0 0 0 0 0 0 0 0 0 0 0 0 0 0 0 0 0 0 0 0 0 0 0 0 0 0 0 0
0 0 0 0 0 0 0 0 0 0 0 0 0 0 0 0 0 0 0 0 0 0 0 0 0 0 0 0 0 0 0 0 0 0 0 0 0 0 0 0 0 0 0 0 0 0 0 0 0
0 0 0 0 0 0 0 0 0 0 0 0 0 0 0 0 0 0 0 0 0 0 0 0 0 0 0 0 0 0 0 0 0 0 0 0 0 0 0 0 0 0 0 0 0 0 0 0 0
0 0 0 0 0 0 0 0 0 0 0 0 0 0 0 0 0 0 0 0 0 0 0 0 0 0 0 0 0 0 0 0 0 0 0 0 0 0 0 0 0 0 0 0 0 0 0 0 0
0 0 0 0 0 0 0 -0 -0 0 0 0 0 0 0 0 0 0 0 0 0 0 0 0 0 0 0 0 0 0 0 0 0 0 0 0 0 0 0 0 0 0 0 0 0 0 0 0 0
0 0 0 0 0 0 0 -0 0 0 0 0 0 0 0 0 0 0 0 0 0 0 0 0 0 0 0 0 0 0 0 0 0 0 0 0 0 0 0 0 0 0 0 0 0 0 0 0 0
0 0 0 0 0 0 0 0 -0 -0 0 0 0 0 0 0 0 0 0 0 0 0 0 0 0 0 0 0 0 0 0 0 0 0 0 0 0 0 0 0 0 0 0 0 0 0 0 0 0
0 0 0 0 0 0 0 0 -0 -0 -0 -0 0 0 0 0 0 0 0 0 0 0 0 0 0 0 0 0 0 0 0 0 0 0 0 0 0 0 0 0 0 0 0 0 0 0 0 0 0
0 0 0 0 0 0 0 0 0 0 0 0 0 0 0 0 0 0 0 0 0 0 0 0 0 0 0 0 0 0 0 0 0 0 0 0 0 0 0 0 0 0 0 0 0 0 0 0 0
0 0 0 0 0 0 0 0 0 -0 0 0 0 0 0 0 0 0 0 0 0 0 0 0 0 0 0 0 0 0 0 0 0 0 0 0 0 0 0 0 0 0 0 0 0 0 0 0 0
0 0 0 0 0 0 0 0 0 0 0 0 0 0 0 0 0 0 0 0 0 0 0 0 0 0 0 0 0 0 0 0 0 0 0 0 0 0 0 0 0 0 0 0 0 0 0 0 0
0 0 0 0 0 0 0 0 0 0 0 0 0 0 0 0 0 0 0 0 0 0 0 0 0 0 0 0 0 0 0 0 0 0 0 0 0 0 0 0 0 0 0 0 0 0 0 0 0
0 0 0 0 0 0 0 0 -0 0 0 0 0 0 0 0 0 0 0 0 0 0 0 0 0 0 0 0 0 0 0 0 0 0 0 0 0 0 0 0 0 0 0 0 0 0 0 0 0
0 0 0 0 0 0 0 0 0 0 0 -0 -0 0 -0 0 0 0 0 0 0 0 0 0 0 0 0 0 0 0 0 0 0 0 0 0 0 0 0 0 0 0 0 0 0 0 0 0 0
Wind_Speed_500mb
39 11 8 6 8 9 3 4 2 4 3 5 11 9 7 5 5 2 24 41 38 35 36 31 24 19 16 15 14 13 17 19 21 26 26 19 14 12 23 22 21 21 22 22 23 22 23 23 26
37 8 7 8 9 6 4 3 8 8 6 19 13 8 3 2 5 10 41 38 39 35 34 30 24 20 15 14 14 12 15 16 18 25 19 15 14 15 18 17 20 19 17 18 19 19 20 21 24
32 8 2 8 6 7 7 9 9 6 22 5 6 4 4 3 6 31 26 41 43 37 31 26 19 16 12 10 11 12 15 16 21 16 17 17 15 15 15 14 15 15 14 13 13 14 16 18 20
25 5 11 8 5 2 3 10 12 17 9 6 6 5 4 4 14 30 30 39 41 35 30 25 19 17 14 13 14 13 16 19 21 15 11 14 12 13 12 10 10 11 10 9 7 9 12 13 15
16 8 8 8 3 3 5 9 29 10 8 10 9 5 4 9 14 31 35 36 37 36 30 24 18 14 11 11 15 14 17 18 16 20 14 7 8 8 9 9 7 7 6 4 3 3 5 9 11
9 6 8 3 2 3 3 14 14 11 10 11 7 11 7 20 22 24 34 32 31 28 29 26 21 15 13 12 13 12 13 13 13 15 16 12 6 6 7 10 9 7 5 3 2 3 2 3 6
9 7 6 5 2 1 8 18 8 13 9 7 6 9 7 25 23 26 33 29 33 32 28 26 21 17 13 12 14 15 16 16 13 14 16 16 7 5 5 1 5 7 7 7 7 7 8 8 7
7 8 5 3 6 6 11 20 7 18 12 7 13 5 6 27 26 32 34 30 30 30 29 27 24 21 18 15 13 12 13 14 12 11 10 9 6 3 2 1 3 9 11 11 11 11 12 13 14
4 7 2 8 11 6 13 10 10 9 10 17 15 11 8 16 34 37 40 39 37 34 34 33 31 26 22 19 17 16 16 16 17 17 15 12 10 9 8 9 8 8 10 15 15 15 16 17 18
6 6 11 9 11 8 14 12 22 11 11 14 16 21 17 17 39 42 45 45 41 37 35 35 33 30 27 24 22 20 19 19 18 18 17 16 15 14 13 13 13 13 12 13 17 19 19 20 23
4 12 7 8 9 12 15 8 16 16 7 22 25 22 22 24 39 43 40 38 34 31 33 32 30 30 30 30 27 26 24 23 22 21 20 19 19 17 16 16 17 17 18 16 16 18 21 23 25
6 11 11 4 10 9 11 12 10 24 10 15 20 14 22 27 35 39 39 36 36 33 30 29 30 31 30 32 34 30 30 28 27 25 25 25 23 21 19 19 20 20 21 21 21 22 24 26 28
4 5 15 11 12 7 7 11 11 23 26 17 22 21 25 28 28 30 31 31 33 35 30 31 31 33 32 32 34 35 36 34 31 31 31 30 29 27 27 25 24 24 24 25 26 27 29 30 33
8 10 5 7 12 11 9 6 6 18 29 28 23 21 24 31 29 29 32 32 36 32 33 32 33 32 32 33 34 34 35 34 34 34 34 35 34 33 33 30 30 29 29 29 31 32 34 35 36
2 3 6 7 5 7 8 10 16 25 16 36 35 28 29 35 36 37 31 31 30 31 31 35 35 35 36 35 34 35 33 33 33 29 30 32 32 31 32 32 32 28 30 33 36 36 38 40 39
6 8 4 6 12 9 10 18 9 42 40 39 37 42 38 39 42 41 37 36 36 37 38 37 38 38 39 40 38 37 35 33 33 31 30 31 32 31 32 33 31 29 32 35 39 39 43 44 44
10 7 6 12 27 7 13 14 24 37 38 56 57 46 44 45 49 49 46 44 43 41 39 40 42 43 43 42 41 41 41 41 39 35 35 32 34 36 38 38 35 33 37 39 41 44 46 49 49
12 9 10 12 6 6 11 22 17 10 17 46 50 56 63 62 61 50 49 47 49 49 46 43 44 46 44 44 44 44 46 46 45 40 36 32 33 35 39 42 40 38 41 42 43 45 47 52 55
10 7 10 5 5 7 15 23 30 42 44 48 47 48 53 59 58 57 61 59 56 55 53 51 52 49 50 51 50 48 47 43 43 37 32 30 29 31 35 38 39 39 42 43 45 47 50 54 53
6 7 7 8 2 5 12 23 27 32 27 54 69 75 76 65 60 56 56 62 68 62 58 57 59 60 57 56 56 55 50 46 43 41 35 30 27 27 30 32 34 35 38 40 42 43 49 51 49
6 10 7 8 8 2 11 32 25 19 50 62 71 70 67 66 70 71 70 68 59 57 57 55 51 55 59 56 58 60 60 53 47 41 31 25 24 25 26 28 30 33 36 38 40 42 45 48 49
13 15 13 6 4 9 2 18 14 6 15 15 44 60 74 81 81 77 75 74 71 68 59 53 51 48 48 47 49 54 56 56 52 47 43 38 36 34 35 34 37 41 45 48 47 47 46 48 51
7 13 15 9 5 7 8 8 7 3 14 12 29 57 63 61 66 78 85 80 70 60 61 58 55 51 51 49 46 48 54 57 57 56 55 52 49 45 42 43 47 48 48 49 50 48 48 48 49
15 11 11 8 6 12 20 13 9 10 14 11 16 45 34 39 46 49 60 56 55 62 65 68 66 63 63 57 48 45 47 49 51 53 51 49 48 47 47 47 47 44 41 38 39 41 43 44 46
11 15 4 2 8 17 2 15 34 5 14 13 19 30 24 23 27 27 27 39 51 48 44 45 51 53 55 49 45 42 40 43 45 47 47 45 42 41 42 40 36 34 36 38 40 42 43 45 47
27 17 11 15 11 8 5 18 12 13 30 36 55 54 51 40 30 31 31 32 34 34 41 40 38 44 44 38 32 31 33 36 36 36 33 33 33 34 33 34 35 36 37 37 39 41 42 44 47
11 23 14 9 3 3 10 13 16 15 23 33 36 31 38 37 25 24 22 18 25 28 31 30 40 40 34 29 31 31 32 31 29 28 28 28 28 29 31 34 34 36 38 40 42 44 44 45 45
21 19 7 1 6 10 11 10 13 12 13 23 24 31 18 14 21 18 13 15 19 26 32 37 37 35 30 29 28 28 26 25 26 25 24 25 27 29 31 33 34 36 39 42 45 47 46 48 47
11 17 9 12 11 9 4 13 15 25 12 13 17 28 24 13 12 16 17 18 26 32 37 39 40 38 35 30 28 29 29 29 28 26 25 24 24 25 28 31 35 38 41 45 47 48 48 49 49
40 33 35 16 19 18 3 19 5 14 12 19 23 22 14 10 6 9 16 24 33 40 43 44 44 43 37 32 34 36 36 34 31 27 23 24 25 28 33 36 39 40 42 44 46 48 48 50 51
Wind_Direction_500mb
360 16 129 131 60 67 115 194 136 140 173 175 144 163 200 146 168 187 153 159 162 164 164 164 167 168 162 139 133 119 130 130 131 136 143 141 132 110 113 118 115 102 93 89 87 80 75 76 75
356 15 133 102 88 93 247 250 188 200 157 127 124 120 127 211 155 151 150 161 163 167 166 164 168 170 169 154 143 131 137 136 134 136 144 143 139 128 113 110 109 103 95 90 86 78 73 71 70
352 21 99 89 107 156 185 192 182 160 143 131 126 146 168 172 157 159 163 163 163 170 168 164 166 168 165 163 157 143 147 150 135 151 139 140 138 119 114 114 109 108 103 97 92 82 72 66 65
355 35 63 74 86 241 226 159 154 138 220 192 174 124 150 170 168 161 166 166 165 169 170 171 168 169 171 171 171 161 162 160 147 145 144 138 123 121 122 118 113 110 107 104 92 80 73 65 59
8 48 57 76 338 273 263 172 155 163 169 164 167 191 174 157 161 165 167 172 173 171 174 176 172 174 177 175 172 168 170 166 160 149 165 156 137 141 138 136 132 121 123 120 108 62 63 54 45
39 49 60 117 289 328 137 170 163 163 169 167 167 152 162 163 153 168 168 172 176 179 180 183 183 181 179 172 172 174 178 178 166 161 144 180 166 155 159 159 158 155 168 184 223 269 323 5 12
79 65 141 156 213 126 174 167 183 185 177 228 183 138 176 179 166 173 171 177 180 183 191 193 194 194 196 193 182 179 182 186 178 182 174 177 186 147 104 157 190 187 194 214 240 258 275 291 307
59 86 111 179 189 240 180 166 204 182 201 202 185 205 183 187 174 170 174 181 185 191 197 202 206 208 206 206 203 198 194 202 206 213 216 234 236 254 318 291 254 227 226 221 235 256 270 281 290
60 60 205 205 157 233 169 172 179 194 175 182 203 227 206 187 187 181 183 185 190 197 201 204 211 216 219 218 217 212 210 209 213 219 223 229 243 262 279 288 284 276 257 242 238 249 260 271 280
108 120 226 201 184 194 187 198 169 169 188 218 225 226 227 201 194 193 194 195 198 200 201 207 211 217 223 226 228 229 229 229 230 232 236 242 246 249 258 269 280 286 280 279 263 259 266 276 282
190 185 205 232 192 177 177 208 183 166 221 218 223 220 218 203 196 203 203 209 211 209 209 213 218 222 228 231 233 235 235 236 238 241 245 248 252 258 265 271 276 278 283 282 274 269 269 271 275
210 243 178 192 204 182 175 168 197 205 223 225 214 216 217 203 201 204 209 209 211 215 218 219 224 229 233 237 237 239 241 243 242 245 248 251 255 261 267 271 274 277 278 280 279 274 271 271 273
199 253 217 199 188 214 197 206 209 226 228 221 210 225 221 212 207 208 213 216 218 222 221 224 228 234 237 242 243 242 245 246 248 248 249 252 257 261 265 270 274 276 275 279 278 278 277 275 273
249 221 259 219 203 201 197 231 228 231 217 222 221 230 222 215 210 212 214 213 221 225 226 230 234 239 243 246 249 251 250 251 252 251 252 254 258 262 266 270 275 275 275 276 277 278 280 281 280
143 222 351 247 222 247 186 266 222 227 217 223 229 233 230 222 218 222 225 226 231 235 235 237 241 244 246 250 253 257 260 260 260 260 257 258 261 265 269 272 275 278 276 276 278 279 281 283 284
103 52 128 298 182 244 167 250 247 231 235 237 231 233 232 229 230 231 230 235 236 240 242 243 245 248 250 253 255 259 264 265 263 263 262 261 265 267 271 274 278 280 277 278 281 285 285 286 288
12 167 193 299 208 173 189 251 243 239 231 238 240 237 236 239 238 237 235 238 238 241 243 245 246 247 250 254 257 259 262 264 265 262 260 260 265 269 272 275 279 281 281 281 284 287 291 293 292
183 191 218 213 216 210 238 258 271 232 238 246 247 243 242 243 244 244 244 244 244 244 244 246 246 247 251 253 254 255 258 261 263 266 269 269 269 272 275 278 281 282 282 283 285 288 288 290 294
142 183 189 245 245 197 241 254 260 258 260 257 254 252 249 249 252 247 247 249 248 246 245 247 249 247 247 247 248 250 253 258 263 267 272 277 273 271 271 275 278 279 281 287 287 288 288 290 293
148 173 218 284 281 192 289 262 253 254 239 244 247 251 253 252 252 249 249 246 246 249 251 252 249 247 245 249 252 252 256 259 263 266 267 268 270 268 268 271 275 278 281 282 285 287 290 290 295
200 199 166 222 331 263 318 280 256 241 235 243 248 253 258 256 255 253 249 245 245 246 247 251 252 251 243 248 251 246 247 252 256 259 260 260 255 254 261 268 274 279 280 282 283 285 288 292 293
225 172 175 194 74 244 37 283 268 278 263 224 245 250 252 252 253 254 252 250 249 249 248 246 245 242 239 240 242 240 243 248 253 255 255 252 249 256 263 267 274 278 279 280 281 281 284 287 289
246 167 179 168 178 337 214 276 261 10 275 269 248 247 246 249 255 256 257 257 257 252 245 246 243 244 239 236 237 242 246 250 252 253 253 253 253 253 257 266 273 275 276 277 280 282 282 281 284
150 93 60 64 109 262 231 189 205 188 211 250 254 257 268 265 262 267 261 259 256 252 251 248 248 247 238 240 237 238 245 248 248 249 252 252 253 255 259 267 275 280 282 284 286 289 291 292 288
159 134 135 240 203 236 301 191 250 238 233 230 257 272 273 279 260 269 280 259 247 248 241 239 243 236 223 222 234 241 242 242 245 248 249 251 254 257 265 272 277 283 287 291 292 292 291 290 287
197 173 163 201 197 263 116 229 248 239 268 261 264 268 270 269 266 286 288 268 233 234 229 232 219 206 213 215 219 230 239 241 243 244 245 247 251 258 265 276 288 295 299 301 299 298 298 295 292
167 217 183 104 71 43 228 289 286 257 266 265 267 276 272 265 268 279 291 246 227 217 205 198 196 195 200 212 224 232 239 237 236 235 235 240 251 265 279 287 293 295 296 297 298 299 300 298 300
186 142 162 175 178 251 261 272 233 278 246 242 260 263 285 267 243 263 279 230 212 194 189 189 192 201 214 222 234 235 230 227 228 234 243 253 263 273 280 284 288 291 293 293 295 297 300 301 302
169 191 186 183 171 197 263 257 218 234 228 243 267 263 282 294 250 262 250 212 198 197 199 202 205 213 220 235 237 229 227 228 233 241 248 258 268 277 281 283 284 283 285 287 291 294 296 296 297
212 200 190 197 214 234 256 255 250 226 227 210 264 269 281 286 282 266 242 222 211 209 211 214 217 220 226 231 229 228 231 235 240 243 251 260 270 275 274 273 276 280 284 289 294 296 299 299 300
Wind_Speed_850mb
39 11 8 6 8 9 3 4 2 4 3 5 11 9 7 5 5 2 24 41 38 35 36 31 24 19 16 15 14 13 17 19 21 26 26 19 14 12 23 22 21 21 22 22 23 22 23 23 26
37 8 7 8 9 6 4 3 8 8 6 19 13 8 3 2 5 10 41 38 39 35 34 30 24 20 15 14 14 12 15 16 18 25 19 15 14 15 18 17 20 19 17 18 19 19 20 21 24
32 8 2 8 6 7 7 9 9 6 22 5 6 4 4 3 6 31 26 41 43 37 31 26 19 16 12 10 11 12 15 16 21 16 17 17 15 15 15 14 15 15 14 13 13 14 16 18 20
25 5 11 8 5 2 3 10 12 17 9 6 6 5 4 4 14 30 30 39 41 35 30 25 19 17 14 13 14 13 16 19 21 15 11 14 12 13 12 10 10 11 10 9 7 9 12 13 15
16 8 8 8 3 3 5 9 29 10 8 10 9 5 4 9 14 31 35 36 37 36 30 24 18 14 11 11 15 14 17 18 16 20 14 7 8 8 9 9 7 7 6 4 3 3 5 9 11
9 6 8 3 2 3 3 14 14 11 10 11 7 11 7 20 22 24 34 32 31 28 29 26 21 15 13 12 13 12 13 13 13 15 16 12 6 6 7 10 9 7 5 3 2 3 2 3 6
9 7 6 5 2 1 8 18 8 13 9 7 6 9 7 25 23 26 33 29 33 32 28 26 21 17 13 12 14 15 16 16 13 14 16 16 7 5 5 1 5 7 7 7 7 7 8 8 7
7 8 5 3 6 6 11 20 7 18 12 7 13 5 6 27 26 32 34 30 30 30 29 27 24 21 18 15 13 12 13 14 12 11 10 9 6 3 2 1 3 9 11 11 11 11 12 13 14
4 7 2 8 11 6 13 10 10 9 10 17 15 11 8 16 34 37 40 39 37 34 34 33 31 26 22 19 17 16 16 16 17 17 15 12 10 9 8 9 8 8 10 15 15 15 16 17 18
6 6 11 9 11 8 14 12 22 11 11 14 16 21 17 17 39 42 45 45 41 37 35 35 33 30 27 24 22 20 19 19 18 18 17 16 15 14 13 13 13 13 12 13 17 19 19 20 23
4 12 7 8 9 12 15 8 16 16 7 22 25 22 22 24 39 43 40 38 34 31 33 32 30 30 30 30 27 26 24 23 22 21 20 19 19 17 16 16 17 17 18 16 16 18 21 23 25
6 11 11 4 10 9 11 12 10 24 10 15 20 14 22 27 35 39 39 36 36 33 30 29 30 31 30 32 34 30 30 28 27 25 25 25 23 21 19 19 20 20 21 21 21 22 24 26 28
4 5 15 11 12 7 7 11 11 23 26 17 22 21 25 28 28 30 31 31 33 35 30 31 31 33 32 32 34 35 36 34 31 31 31 30 29 27 27 25 24 24 24 25 26 27 29 30 33
8 10 5 7 12 11 9 6 6 18 29 28 23 21 24 31 29 29 32 32 36 32 33 32 33 32 32 33 34 34 35 34 34 34 34 35 34 33 33 30 30 29 29 29 31 32 34 35 36
2 3 6 7 5 7 8 10 16 25 16 36 35 28 29 35 36 37 31 31 30 31 31 35 35 35 36 35 34 35 33 33 33 29 30 32 32 31 32 32 32 28 30 33 36 36 38 40 39
6 8 4 6 12 9 10 18 9 42 40 39 37 42 38 39 42 41 37 36 36 37 38 37 38 38 39 40 38 37 35 33 33 31 30 31 32 31 32 33 31 29 32 35 39 39 43 44 44
10 7 6 12 27 7 13 14 24 37 38 56 57 46 44 45 49 49 46 44 43 41 39 40 42 43 43 42 41 41 41 41 39 35 35 32 34 36 38 38 35 33 37 39 41 44 46 49 49
12 9 10 12 6 6 11 22 17 10 17 46 50 56 63 62 61 50 49 47 49 49 46 43 44 46 44 44 44 44 46 46 45 40 36 32 33 35 39 42 40 38 41 42 43 45 47 52 55
10 7 10 5 5 7 15 23 30 42 44 48 47 48 53 59 58 57 61 59 56 55 53 51 52 49 50 51 50 48 47 43 43 37 32 30 29 31 35 38 39 39 42 43 45 47 50 54 53
6 7 7 8 2 5 12 23 27 32 27 54 69 75 76 65 60 56 56 62 68 62 58 57 59 60 57 56 56 55 50 46 43 41 35 30 27 27 30 32 34 35 38 40 42 43 49 51 49
6 10 7 8 8 2 11 32 25 19 50 62 71 70 67 66 70 71 70 68 59 57 57 55 51 55 59 56 58 60 60 53 47 41 31 25 24 25 26 28 30 33 36 38 40 42 45 48 49
13 15 13 6 4 9 2 18 14 6 15 15 44 60 74 81 81 77 75 74 71 68 59 53 51 48 48 47 49 54 56 56 52 47 43 38 36 34 35 34 37 41 45 48 47 47 46 48 51
7 13 15 9 5 7 8 8 7 3 14 12 29 57 63 61 66 78 85 80 70 60 61 58 55 51 51 49 46 48 54 57 57 56 55 52 49 45 42 43 47 48 48 49 50 48 48 48 49
15 11 11 8 6 12 20 13 9 10 14 11 16 45 34 39 46 49 60 56 55 62 65 68 66 63 63 57 48 45 47 49 51 53 51 49 48 47 47 47 47 44 41 38 39 41 43 44 46
11 15 4 2 8 17 2 15 34 5 14 13 19 30 24 23 27 27 27 39 51 48 44 45 51 53 55 49 45 42 40 43 45 47 47 45 42 41 42 40 36 34 36 38 40 42 43 45 47
27 17 11 15 11 8 5 18 12 13 30 36 55 54 51 40 30 31 31 32 34 34 41 40 38 44 44 38 32 31 33 36 36 36 33 33 33 34 33 34 35 36 37 37 39 41 42 44 47
11 23 14 9 3 3 10 13 16 15 23 33 36 31 38 37 25 24 22 18 25 28 31 30 40 40 34 29 31 31 32 31 29 28 28 28 28 29 31 34 34 36 38 40 42 44 44 45 45
21 19 7 1 6 10 11 10 13 12 13 23 24 31 18 14 21 18 13 15 19 26 32 37 37 35 30 29 28 28 26 25 26 25 24 25 27 29 31 33 34 36 39 42 45 47 46 48 47
11 17 9 12 11 9 4 13 15 25 12 13 17 28 24 13 12 16 17 18 26 32 37 39 40 38 35 30 28 29 29 29 28 26 25 24 24 25 28 31 35 38 41 45 47 48 48 49 49
40 33 35 16 19 18 3 19 5 14 12 19 23 22 14 10 6 9 16 24 33 40 43 44 44 43 37 32 34 36 36 34 31 27 23 24 25 28 33 36 39 40 42 44 46 48 48 50 51
Wind_Direction_850mb
360 16 129 131 60 67 115 194 136 140 173 175 144 163 200 146 168 187 153 159 162 164 164 164 167 168 162 139 133 119 130 130 131 136 143 141 132 110 113 118 115 102 93 89 87 80 75 76 75
356 15 133 102 88 93 247 250 188 200 157 127 124 120 127 211 155 151 150 161 163 167 166 164 168 170 169 154 143 131 137 136 134 136 144 143 139 128 113 110 109 103 95 90 86 78 73 71 70
352 21 99 89 107 156 185 192 182 160 143 131 126 146 168 172 157 159 163 163 163 170 168 164 166 168 165 163 157 143 147 150 135 151 139 140 138 119 114 114 109 108 103 97 92 82 72 66 65
355 35 63 74 86 241 226 159 154 138 220 192 174 124 150 170 168 161 166 166 165 169 170 171 168 169 171 171 171 161 162 160 147 145 144 138 123 121 122 118 113 110 107 104 92 80 73 65 59
8 48 57 76 338 273 263 172 155 163 169 164 167 191 174 157 161 165 167 172 173 171 174 176 172 174 177 175 172 168 170 166 160 149 165 156 137 141 138 136 132 121 123 120 108 62 63 54 45
39 49 60 117 289 328 137 170 163 163 169 167 167 152 162 163 153 168 168 172 176 179 180 183 183 181 179 172 172 174 178 178 166 161 144 180 166 155 159 159 158 155 168 184 223 269 323 5 12
79 65 141 156 213 126 174 167 183 185 177 228 183 138 176 179 166 173 171 177 180 183 191 193 194 194 196 193 182 179 182 186 178 182 174 177 186 147 104 157 190 187 194 214 240 258 275 291 307
59 86 111 179 189 240 180 166 204 182 201 202 185 205 183 187 174 170 174 181 185 191 197 202 206 208 206 206 203 198 194 202 206 213 216 234 236 254 318 291 254 227 226 221 235 256 270 281 290
60 60 205 205 157 233 169 172 179 194 175 182 203 227 206 187 187 181 183 185 190 197 201 204 211 216 219 218 217 212 210 209 213 219 223 229 243 262 279 288 284 276 257 242 238 249 260 271 280
108 120 226 201 184 194 187 198 169 169 188 218 225 226 227 201 194 193 194 195 198 200 201 207 211 217 223 226 228 229 229 229 230 232 236 242 246 249 258 269 280 286 280 279 263 259 266 276 282
190 185 205 232 192 177 177 208 183 166 221 218 223 220 218 203 196 203 203 209 211 209 209 213 218 222 228 231 233 235 235 236 238 241 245 248 252 258 265 271 276 278 283 282 274 269 269 271 275
210 243 178 192 204 182 175 168 197 205 223 225 214 216 217 203 201 204 209 209 211 215 218 219 224 229 233 237 237 239 241 243 242 245 248 251 255 261 267 271 274 277 278 280 279 274 271 271 273
199 253 217 199 188 214 197 206 209 226 228 221 210 225 221 212 207 208 213 216 218 222 221 224 228 234 237 242 243 242 245 246 248 248 249 252 257 261 265 270 274 276 275 279 278 278 277 275 273
249 221 259 219 203 201 197 231 228 231 217 222 221 230 222 215 210 212 214 213 221 225 226 230 234 239 243 246 249 251 250 251 252 251 252 254 258 262 266 270 275 275 275 276 277 278 280 281 280
143 222 351 247 222 247 186 266 222 227 217 223 229 233 230 222 218 222 225 226 231 235 235 237 241 244 246 250 253 257 260 260 260 260 257 258 261 265 269 272 275 278 276 276 278 279 281 283 284
103 52 128 298 182 244 167 250 247 231 235 237 231 233 232 229 230 231 230 235 236 240 242 243 245 248 250 253 255 259 264 265 263 263 262 261 265 267 271 274 278 280 277 278 281 285 285 286 288
12 167 193 299 208 173 189 251 243 239 231 238 240 237 236 239 238 237 235 238 238 241 243 245 246 247 250 254 257 259 262 264 265 262 260 260 265 269 272 275 279 281 281 281 284 287 291 293 292
183 191 218 213 216 210 238 258 271 232 238 246 247 243 242 243 244 244 244 244 244 244 244 246 246 247 251 253 254 255 258 261 263 266 269 269 269 272 275 278 281 282 282 283 285 288 288 290 294
142 183 189 245 245 197 241 254 260 258 260 257 254 252 249 249 252 247 247 249 248 246 245 247 249 247 247 247 248 250 253 258 263 267 272 277 273 271 271 275 278 279 281 287 287 288 288 290 293
148 173 218 284 281 192 289 262 253 254 239 244 247 251 253 252 252 249 249 246 246 249 251 252 249 247 245 249 252 252 256 259 263 266 267 268 270 268 268 271 275 278 281 282 285 287 290 290 295
200 199 166 222 331 263 318 280 256 241 235 243 248 253 258 256 255 253 249 245 245 246 247 251 252 251 243 248 251 246 247 252 256 259 260 260 255 254 261 268 274 279 280 282 283 285 288 292 293
225 172 175 194 74 244 37 283 268 278 263 224 245 250 252 252 253 254 252 250 249 249 248 246 245 242 239 240 242 240 243 248 253 255 255 252 249 256 263 267 274 278 279 280 281 281 284 287 289
246 167 179 168 178 337 214 276 261 10 275 269 248 247 246 249 255 256 257 257 257 252 245 246 243 244 239 236 237 242 246 250 252 253 253 253 253 253 257 266 273 275 276 277 280 282 282 281 284
150 93 60 64 109 262 231 189 205 188 211 250 254 257 268 265 262 267 261 259 256 252 251 248 248 247 238 240 237 238 245 248 248 249 252 252 253 255 259 267 275 280 282 284 286 289 291 292 288
159 134 135 240 203 236 301 191 250 238 233 230 257 272 273 279 260 269 280 259 247 248 241 239 243 236 223 222 234 241 242 242 245 248 249 251 254 257 265 272 277 283 287 291 292 292 291 290 287
197 173 163 201 197 263 116 229 248 239 268 261 264 268 270 269 266 286 288 268 233 234 229 232 219 206 213 215 219 230 239 241 243 244 245 247 251 258 265 276 288 295 299 301 299 298 298 295 292
167 217 183 104 71 43 228 289 286 257 266 265 267 276 272 265 268 279 291 246 227 217 205 198 196 195 200 212 224 232 239 237 236 235 235 240 251 265 279 287 293 295 296 297 298 299 300 298 300
186 142 162 175 178 251 261 272 233 278 246 242 260 263 285 267 243 263 279 230 212 194 189 189 192 201 214 222 234 235 230 227 228 234 243 253 263 273 280 284 288 291 293 293 295 297 300 301 302
169 191 186 183 171 197 263 257 218 234 228 243 267 263 282 294 250 262 250 212 198 197 199 202 205 213 220 235 237 229 227 228 233 241 248 258 268 277 281 283 284 283 285 287 291 294 296 296 297
212 200 190 197 214 234 256 255 250 226 227 210 264 269 281 286 282 266 242 222 211 209 211 214 217 220 226 231 229 228 231 235 240 243 251 260 270 275 274 273 276 280 284 289 294 296 299 299 300